Location: Unspecified
(33.2407°S, 0.0000°E)
Time: 14:10:00
(UTC+00:00)

Envisat - Pass Details

Date: 23 May 2019
Orbit: 764 x 766 km, 98.1° (Epoch: 25 June)

Event Time Altitude Azimuth Distance (km) Brightness Sun altitude
Rises 06:02:16 0° 30° (NNE) 3,219 7.0 -10.0°
Reaches altitude 10° 06:04:38 10° 36° (NE) 2,301 6.4 -9.5°
Maximum altitude 06:09:27 44° 107° (ESE) 1,054 4.2 -8.6°
Drops below altitude 10° 06:14:19 10° 178° (S) 2,330 5.3 -7.6°
Sets 06:16:43 0° 184° (S) 3,263 6.0 -7.1°
